Weather in Oleshky

Ukraine / Kherson District     46°36′50″N   32°43′04″E
temp.,
°C
wind,
m/s
gust,
m/s
humid.,
%
clouds,
%
prec.,
mm/h
press.,
hPa
HPBL,
m
8 may, sat
sat800:00+13s5137671 0.0 1012327
03:00+13s61477100 0.1 1011382
06:00+14s61484100 0.4 1009419
09:00+17sw7126889 0.6 1009612
12:00+19wnw776299 0.0 10091231
15:00+14nw91071100 0.2 1011915
18:00+15nnw81052100 0.0 10121246
21:00+12nnw71159100 0.0 10151117
9 may, sun
sun900:00+9nnw712660 0.0 1017689
03:00+7nnw511742 0.0 1020509
06:00+6nw510780 0.0 1022370
09:00+10nnw78500 0.0 10231026
12:00+14nnw68365 0.0 10241965
15:00+16nnw6829100 0.0 10243049
18:00+15nnw673264 0.0 10252411
21:00+11nnw234982 0.0 102749
10 may, mon
mon1000:00+10nne115798 0.0 102823
03:00+10nne335581 0.0 102882
06:00+8nne33644 0.0 102854
09:00+13nne34470 0.0 1028701
12:00+16n56335 0.0 10272087
15:00+18n56285 0.0 10252326
18:00+17n67315 0.0 10242243
21:00+12n46452 0.0 1024111
11 may, tue
tue1100:00+10n4852100 0.0 1023152
03:00+9nnw4106345 0.0 1022200
06:00+8nw512685 0.0 1020321
09:00+12nnw795989 0.0 1019630
12:00+15nne575928 0.0 1018787
15:00+17nne4660100 0.0 10161050
18:00+13ne4873100 0.0 1016669
21:00+12nne4882100 0.1 1016477
12 may, wed
wed1200:00+9nne48785 0.0 1015209
03:00+7nne358512 0.0 1014110
06:00+9nnw2478100 0.0 1013219
09:00+10n2272100 0.1 1013534
12:00+12ssw1258100 0.1 10131242
15:00+14w345191 0.3 10121610
18:00+14wsw235285 0.0 1013967
21:00+10sw33650 0.0 101327